[[{"header":{"parameterUnit":"m.s-1","parameterCategory":1,"la1":30.2991,"la2":30.254,"lo1":-89.0895,"lo2":-89.0444,"dy":0.0017,"dx":0.0017,"nx":28,"ny":28,"refTime":"2024-07-20T21:00:00:Z","depth":0,"parameterNumber":2,"parameterNumberName":"U-component_of_WINDS"},"data":[0,0,0,0,0,0,0,0,0,0,0,0,0,0,0,0,0,0,0,0,0,0,0,0,0,0,0,0,0,0,0,0,0,0,0,0,0,0,0,0,0,0,0,0,0,0,0,0,0,0,0,0,0,0,0,0,0,0,1.2204,1.2205,0,1.2245,1.2245,1.2246,1.2227,1.2226,1.2225,1.2224,1.2264,1.2266,1.2268,0,0,0,0,0,0,0,0,0,0,0,0,0,1.2108,1.211,1.2204,1.2205,1.2205,1.2245,1.2245,1.2246,1.2227,1.2226,1.2225,1.2224,1.2264,1.2266,1.2268,0,0,0,0,0,0,0,0,0,0,0,0,0,1.215,1.2111,1.2204,1.2201,1.2201,1.2245,1.2245,1.2246,1.2227,1.2226,1.2224,1.2223,1.2263,1.2266,1.2269,1.2318,0,0,1.2278,1.2279,0,0,0,0,0,0,0,0,1.2147,1.2153,1.2201,1.2201,1.2201,1.2229,1.2226,1.227,1.2228,1.2217,1.2224,1.2222,1.2254,1.2257,1.2268,1.232,1.2322,1.2278,1.228,1.2281,1.2282,0,0,0,0,0,0,0,1.2144,1.2151,1.222,1.2201,1.2202,1.2196,1.2201,1.2234,1.2244,1.2218,1.2217,1.2222,1.2254,1.2265,1.2269,1.2322,1.2278,1.2281,1.2283,1.2284,1.2414,1.2416,0,0,0,0,0,0,1.2142,1.2149,1.2219,1.2221,1.217,1.2199,1.2204,1.2222,1.2243,1.2245,1.2223,1.2221,1.2261,1.2266,1.227,1.2328,1.2281,1.2284,1.2286,1.2413,1.2415,1.2416,0,0,0,0,0,0,1.214,1.2148,1.2217,1.2185,1.2193,1.2203,1.2223,1.2223,1.2235,1.2247,1.2248,1.2234,1.226,1.2266,1.2306,1.2329,1.2286,1.2288,1.2411,1.2413,1.2416,1.2445,0,0,0,0,0,0,1.2137,1.2148,1.2167,1.2186,1.2195,1.2253,1.2224,1.2225,1.2241,1.2238,1.2257,1.2259,1.2259,1.2302,1.2309,1.2333,1.2291,1.2409,1.2412,1.2415,1.2442,1.2448,1.2453,0,0,0,0,0,1.2134,1.2174,1.2168,1.2177,1.222,1.2254,1.226,1.226,1.2243,1.2262,1.2269,1.2258,1.2326,1.2306,1.2314,1.2339,1.2407,1.2411,1.2415,1.2439,1.2447,1.2453,0,0,0,0,0,0,1.2158,1.2176,1.217,1.2217,1.2234,1.2251,1.2275,1.2268,1.229,1.2286,1.2285,1.2289,1.233,1.2339,1.2316,1.2387,1.2364,1.2369,1.238,1.2387,1.2393,1.2389,1.2293,0,0,0,0,0,1.2168,1.2196,1.221,1.225,1.2259,1.2266,1.2281,1.2279,1.2297,1.2304,1.2314,1.2331,1.2356,1.2372,1.2396,1.2443,1.2446,1.2465,1.247,1.2475,1.2479,1.2504,1.2511,1.2429,1.2429,1.2429,0,0,1.2191,1.2204,1.2222,1.2255,1.2268,1.2296,1.2272,1.2302,1.2322,1.2308,1.2346,1.2354,1.2373,1.2416,1.2436,1.2425,1.2503,1.248,1.2483,1.2485,1.2508,1.2516,1.2523,1.2431,1.2431,1.243,0,0,1.2245,1.2259,1.2293,1.2307,1.2327,1.2331,1.2339,1.2357,1.2361,1.24,1.2389,1.2413,1.2456,1.2469,1.2482,1.254,1.2531,1.2548,1.2578,1.2601,1.2608,1.2614,1.2633,1.264,1.2553,1.2553,1.2553,0,1.227,1.2312,1.2312,1.2342,1.2357,1.2346,1.238,1.2393,1.2419,1.2429,1.2417,1.247,1.2482,1.2527,1.2541,1.2553,1.2561,1.2545,1.2607,1.2613,1.2618,1.2637,1.2644,1.2555,1.2555,1.2554,1.2554,0,1.2341,1.237,1.2395,1.2421,1.2438,1.247,1.2474,1.2492,1.2489,1.2494,1.2532,1.2546,1.2571,1.2582,1.258,1.2627,1.262,1.2607,1.2584,1.2628,1.2645,1.2652,1.2557,1.2557,1.2556,1.2556,0,0,1.2411,1.2436,1.2445,1.2456,1.2477,1.2499,1.253,1.2556,1.257,1.2589,1.2614,1.2651,1.2639,1.2653,1.2651,1.2672,1.2716,1.2657,1.2657,1.2666,1.2768,1.2776,1.2784,1.271,1.2712,1.2713,1.2766,0,1.2466,1.2521,1.2521,1.2572,1.2597,1.2587,1.2614,1.2629,1.2635,1.2657,1.2663,1.2688,1.2671,1.2679,1.27,1.2706,1.2736,1.2703,1.2732,1.2734,1.2727,1.2793,1.2802,1.2851,1.2772,1.2774,1.2774,0,1.2537,1.2558,1.2611,1.2627,1.2638,1.2662,1.2684,1.2706,1.2723,1.2725,1.2741,1.2736,1.2766,1.2743,1.2784,1.2762,1.2774,1.2779,1.2781,1.2782,1.2756,1.2795,1.2867,1.2874,1.2785,1.2785,1.2784,0,1.2581,1.2622,1.2659,1.2669,1.2689,1.2706,1.2715,1.273,1.2745,1.2765,1.2774,1.2797,1.2809,1.2827,1.2828,1.2811,1.2869,1.2846,1.2871,1.2871,1.2883,1.2882,1.2956,1.2893,1.2893,1.2893,1.2893,0,1.2641,1.2674,1.2679,1.2701,1.2736,1.2736,1.2771,1.2779,1.2792,1.2815,1.2808,1.283,1.2831,1.2852,1.2854,1.2887,1.2893,1.2895,1.2894,1.2895,1.2894,1.2901,1.2897,1.2895,1.2894,1.2894,1.2894,0,1.2696,1.2701,1.274,1.2756,1.276,1.2785,1.2798,1.2819,1.2824,1.2853,1.286,1.2867,1.2892,1.2895,1.2925,1.2926,1.2965,1.2962,1.2959,1.2958,1.2982,1.2979,1.3063,1.3073,1.3005,1.3006,1.3006,0,1.2734,1.2758,1.2776,1.2791,1.2801,1.2825,1.284,1.2841,1.2857,1.2877,1.2895,1.292,1.2939,1.298,1.2987,1.3009,1.3005,1.3033,1.3009,1.3008,1.3004,1.3002,1.3003,1.3037,1.3038,1.3039,1.3039,0,1.2799,1.28,1.2822,1.2844,1.2862,1.288,1.2897,1.2909,1.2912,1.293,1.2955,1.297,1.3,1.3024,1.3046,1.3054,1.3047,1.3047,1.3054,1.3053,1.305,1.3051,1.2971,1.3045,1.3044,1.3044,1.3044,1.3043,1.2845,1.2866,1.2881,1.2906,1.2918,1.2934,1.2954,1.2961,1.2982,1.3007,1.3006,1.3034,1.3049,1.3077,1.3087,1.3108,1.3099,1.3109,1.3111,1.3113,1.3115,1.3048,1.3113,1.3112,1.3112,1.3112,1.3112,0,1.2909,1.2918,1.2941,1.2964,1.2983,1.2975,1.2992,1.3008,1.3033,1.3048,1.3067,1.3096,1.3119,1.3128,1.315,1.3165,1.3162,1.3171,1.3169,1.3171,1.3123,1.3114,1.3173,1.3173,1.3173,1.3173,1.3173,1.3173,1.2944,1.2978,1.2981,1.302,1.303,1.3057,1.3067,1.3081,1.3093,1.3125,1.3144,1.3151,1.3163,1.3186,1.3206,1.3208,1.3216,1.3226,1.3226,1.3181,1.3174,1.3169,1.316,1.3228,1.3228,1.3272,1.3272,1.3273]},{"header":{"parameterUnit":"m.s-1","parameterCategory":1,"la1":30.2991,"la2":30.254,"lo1":-89.0895,"lo2":-89.0444,"dy":0.0017,"dx":0.0017,"nx":28,"ny":28,"refTime":"2024-07-20T21:00:00:Z","depth":0,"parameterNumber":3,"parameterNumberName":"V-component_of_WINDS"},"data":[0,0,0,0,0,0,0,0,0,0,0,0,0,0,0,0,0,0,0,0,0,0,0,0,0,0,0,0,0,0,0,0,0,0,0,0,0,0,0,0,0,0,0,0,0,0,0,0,0,0,0,0,0,0,0,0,0,0,-0.6438,-0.6438,0,-0.6439,-0.6439,-0.6439,-0.6467,-0.6468,-0.6469,-0.6469,-0.6469,-0.6468,-0.6468,0,0,0,0,0,0,0,0,0,0,0,0,0,-0.6458,-0.6458,-0.6438,-0.6438,-0.6438,-0.6439,-0.6439,-0.6439,-0.6467,-0.6468,-0.6469,-0.647,-0.6469,-0.6468,-0.6467,0,0,0,0,0,0,0,0,0,0,0,0,0,-0.6453,-0.6458,-0.6438,-0.6452,-0.6453,-0.6439,-0.6439,-0.6439,-0.6467,-0.6468,-0.6469,-0.647,-0.6469,-0.6468,-0.6467,-0.6439,0,0,-0.6464,-0.6464,0,0,0,0,0,0,0,0,-0.6454,-0.6453,-0.645,-0.6451,-0.6452,-0.6454,-0.6446,-0.6439,-0.6467,-0.6462,-0.6469,-0.6471,-0.6463,-0.6463,-0.646,-0.6439,-0.6439,-0.6464,-0.6464,-0.6463,-0.6463,0,0,0,0,0,0,0,-0.6454,-0.6453,-0.6438,-0.645,-0.6451,-0.6458,-0.6458,-0.6445,-0.6456,-0.6462,-0.6464,-0.6464,-0.6464,-0.6461,-0.6461,-0.6439,-0.6464,-0.6463,-0.6463,-0.6462,-0.6395,-0.6394,0,0,0,0,0,0,-0.6453,-0.6453,-0.6438,-0.6438,-0.6456,-0.6457,-0.6457,-0.6452,-0.6456,-0.6458,-0.6463,-0.6465,-0.6462,-0.6462,-0.6461,-0.6428,-0.6463,-0.6462,-0.6462,-0.6396,-0.6395,-0.6393,0,0,0,0,0,0,-0.6453,-0.6451,-0.6438,-0.6446,-0.6445,-0.6455,-0.6449,-0.6452,-0.6449,-0.6457,-0.6459,-0.6458,-0.6463,-0.6462,-0.6444,-0.6428,-0.6462,-0.6461,-0.6398,-0.6396,-0.6394,-0.6361,0,0,0,0,0,0,-0.6453,-0.6451,-0.644,-0.6446,-0.6444,-0.6422,-0.6448,-0.6451,-0.6448,-0.645,-0.6453,-0.6455,-0.6464,-0.6446,-0.6443,-0.6427,-0.646,-0.6399,-0.6397,-0.6395,-0.6364,-0.6359,-0.6354,0,0,0,0,0,-0.6454,-0.6431,-0.644,-0.6438,-0.6432,-0.6421,-0.642,-0.6432,-0.6446,-0.6435,-0.6441,-0.6455,-0.6431,-0.6444,-0.6441,-0.6424,-0.64,-0.6397,-0.6395,-0.6366,-0.636,-0.6354,0,0,0,0,0,0,-0.6422,-0.6432,-0.6442,-0.642,-0.6419,-0.6426,-0.6412,-0.6425,-0.642,-0.6423,-0.6437,-0.6438,-0.6418,-0.642,-0.6434,-0.6397,-0.6418,-0.6414,-0.6397,-0.6391,-0.6386,-0.6385,-0.6459,0,0,0,0,0,-0.6413,-0.6404,-0.6413,-0.6392,-0.6392,-0.6402,-0.6398,-0.6407,-0.6407,-0.6407,-0.6411,-0.641,-0.6402,-0.6397,-0.639,-0.6365,-0.6366,-0.6352,-0.6347,-0.6343,-0.634,-0.6326,-0.632,-0.6385,-0.6385,-0.6385,0,0,-0.6393,-0.6397,-0.639,-0.6386,-0.6387,-0.6377,-0.6402,-0.639,-0.6382,-0.6405,-0.6389,-0.6392,-0.6392,-0.637,-0.6361,-0.6371,-0.6322,-0.634,-0.6337,-0.6335,-0.6323,-0.6317,-0.6311,-0.6383,-0.6383,-0.6384,0,0,-0.6351,-0.6354,-0.6337,-0.6338,-0.6339,-0.6347,-0.6343,-0.6348,-0.635,-0.6335,-0.6351,-0.6343,-0.6329,-0.6329,-0.6326,-0.6286,-0.6298,-0.6283,-0.6257,-0.6244,-0.6239,-0.6235,-0.622,-0.6214,-0.628,-0.628,-0.628,0,-0.6326,-0.6312,-0.6327,-0.6314,-0.6311,-0.6333,-0.6315,-0.6315,-0.6314,-0.6312,-0.6324,-0.6307,-0.6309,-0.6287,-0.6278,-0.6276,-0.6271,-0.6282,-0.6239,-0.6234,-0.623,-0.6216,-0.6211,-0.6278,-0.6279,-0.6279,-0.6279,0,-0.6281,-0.6271,-0.6257,-0.6256,-0.6252,-0.6237,-0.6249,-0.6244,-0.6254,-0.626,-0.6243,-0.6246,-0.624,-0.6236,-0.6246,-0.6216,-0.6222,-0.6236,-0.6257,-0.6222,-0.6209,-0.6204,-0.6276,-0.6276,-0.6277,-0.6277,0,0,-0.6217,-0.6226,-0.6221,-0.6221,-0.6224,-0.6217,-0.6203,-0.6198,-0.6193,-0.6192,-0.618,-0.6169,-0.6182,-0.618,-0.6189,-0.6178,-0.6145,-0.6193,-0.6194,-0.6183,-0.6112,-0.6101,-0.6094,-0.6154,-0.6153,-0.6152,-0.6112,0,-0.6177,-0.6154,-0.6167,-0.6142,-0.6133,-0.6154,-0.6142,-0.6143,-0.6148,-0.6141,-0.6148,-0.6139,-0.6157,-0.6156,-0.6146,-0.6151,-0.6131,-0.6155,-0.6143,-0.6142,-0.6141,-0.6087,-0.6075,-0.6037,-0.6107,-0.6106,-0.6105,0,-0.6126,-0.6123,-0.6097,-0.6104,-0.61,-0.6089,-0.6086,-0.6079,-0.6081,-0.6086,-0.6084,-0.6096,-0.6083,-0.6105,-0.6086,-0.6102,-0.6098,-0.61,-0.6099,-0.6097,-0.6121,-0.6083,-0.6025,-0.6019,-0.6098,-0.6098,-0.6099,0,-0.6081,-0.6071,-0.6055,-0.6054,-0.6061,-0.6053,-0.6055,-0.6058,-0.6055,-0.6052,-0.605,-0.6045,-0.6043,-0.6039,-0.605,-0.6065,-0.603,-0.6052,-0.6033,-0.6033,-0.6023,-0.6024,-0.5963,-0.6023,-0.6023,-0.6023,-0.6023,0,-0.6033,-0.6017,-0.6035,-0.6025,-0.6007,-0.6022,-0.6004,-0.6009,-0.6011,-0.6002,-0.602,-0.601,-0.6026,-0.6019,-0.6027,-0.601,-0.6009,-0.6012,-0.6015,-0.601,-0.601,-0.6007,-0.6009,-0.6022,-0.6022,-0.6022,-0.6022,0,-0.598,-0.5992,-0.5975,-0.5983,-0.5985,-0.5971,-0.5978,-0.5969,-0.5977,-0.5964,-0.5963,-0.5974,-0.5966,-0.5977,-0.597,-0.5976,-0.5953,-0.596,-0.5952,-0.5954,-0.5934,-0.5935,-0.5868,-0.5859,-0.5926,-0.5925,-0.5925,0,-0.5948,-0.5936,-0.5943,-0.5939,-0.594,-0.5933,-0.5929,-0.5945,-0.594,-0.5942,-0.5932,-0.5926,-0.5921,-0.5908,-0.5915,-0.591,-0.5916,-0.5893,-0.5915,-0.5911,-0.5915,-0.5915,-0.5913,-0.5888,-0.5887,-0.5886,-0.5886,0,-0.589,-0.5897,-0.5892,-0.5889,-0.5885,-0.5883,-0.5883,-0.5878,-0.5894,-0.5888,-0.5881,-0.5877,-0.5871,-0.5864,-0.5861,-0.5863,-0.5877,-0.5879,-0.5874,-0.5869,-0.5865,-0.5866,-0.5939,-0.588,-0.5881,-0.5881,-0.5881,-0.5882,-0.5846,-0.5836,-0.584,-0.5834,-0.5835,-0.5835,-0.5826,-0.5833,-0.5828,-0.5824,-0.5833,-0.5823,-0.5826,-0.5823,-0.5824,-0.5816,-0.5826,-0.5819,-0.5817,-0.5815,-0.5811,-0.5867,-0.5816,-0.5816,-0.5816,-0.5816,-0.5816,0,-0.5788,-0.5792,-0.5786,-0.5786,-0.5781,-0.5796,-0.5796,-0.5791,-0.5782,-0.5784,-0.5779,-0.5771,-0.5765,-0.5772,-0.5767,-0.5759,-0.5766,-0.5758,-0.5758,-0.5758,-0.5803,-0.5807,-0.5753,-0.5753,-0.5753,-0.5753,-0.5753,-0.5753,-0.5757,-0.5741,-0.5749,-0.5734,-0.5738,-0.5729,-0.5728,-0.5727,-0.5729,-0.5718,-0.5714,-0.5719,-0.5723,-0.5719,-0.5713,-0.5716,-0.5713,-0.5702,-0.5707,-0.5748,-0.5755,-0.576,-0.5765,-0.5702,-0.5702,-0.5662,-0.5661,-0.5661]}]]